Kars, Turkey

8:49 AM +03 on May 23, 2018 (GMT +0300)
Kars

Weather History for LTCF - March, 2013

Change the Weather History Date:

Tuesday, March 12, 2013

  Actual Average Record
Temperature  
Mean Temperature 34 °F -  
Max Temperature 39 °F 42 °F - ()
Min Temperature 28 °F 24 °F - ()
Degree Days  
Heating Degree Days 32    
Moisture  
Dew Point 31 °F    
Average Humidity 77    
Maximum Humidity 87    
Minimum Humidity 62    
Precipitation  
Precipitation 0.01 in 0.04 in - ()
Sea Level Pressure  
Sea Level Pressure 29.89 in    
Wind  
Wind Speed 15 mph ()    
Max Wind Speed 25 mph    
Max Gust Speed -    
Visibility 6.2 miles    
Events Rain    
T = Trace of Precipitation, MM = Missing Value Source: Averaged Metar Reports

Daily Weather History Graph

Daily Weather History Graph

Search for Another Location

Airport or City:

Astronomy

Mar. 12, 2013 Rise Set
Actual Time 5:24 AM EET 5:10 PM EET
Civil Twilight 4:56 AM EET 5:38 PM EET
Nautical Twilight 4:25 AM EET 6:09 PM EET
Astronomical Twilight 3:53 AM EET 6:41 PM EET
Moon 5:18 AM EET (3/12) 6:03 PM EET (3/12)
Length of Visible Light 12h 41m
Length of Day
11h 46m
New Moon, 0% of the Moon is Illuminated
Mar 12
New Moon
Mar 19
First Quarter
Mar 27
Full
Apr 3
Last Quarter
Apr 10
New

Hourly Weather History & Observations

Time (EET) Temp. Windchill Dew Point Humidity Pressure Visibility Wind Dir Wind Speed Gust Speed Precip Events Conditions
12:50 AM 35.6 °F 27.5 °F 26.6 °F 70% 29.89 in 6.2 mi West 11.5 mph - N/A   Scattered Clouds
1:50 AM 37.4 °F 27.5 °F 28.4 °F 70% 29.86 in 6.2 mi SW 18.4 mph - N/A   Mostly Cloudy
2:00 AM 37 °F - 29 °F 62%  in 6 mi SW 18.4 mph - -   Mostly Cloudy
2:50 AM 35.6 °F 25.5 °F 28.4 °F 75% 29.86 in 6.2 mi SSW 17.3 mph - N/A   Mostly Cloudy
3:50 AM 35.6 °F 29.2 °F 30.2 °F 81% 29.86 in 6.2 mi SSW 8.1 mph - N/A   Mostly Cloudy
4:50 AM 35.6 °F 29.9 °F 30.2 °F 81% 29.86 in 6.2 mi SSW 6.9 mph - N/A   Mostly Cloudy
5:50 AM 35.6 °F 25.5 °F 30.2 °F 81% 29.86 in 6.2 mi SW 17.3 mph - N/A   Mostly Cloudy
6:50 AM 37.4 °F 26.6 °F 32.0 °F 81% 29.86 in 6.2 mi SW 21.9 mph - N/A   Mostly Cloudy
7:50 AM 37.4 °F 25.9 °F 32.0 °F 81% 29.89 in 6.2 mi SW 25.3 mph - N/A   Mostly Cloudy
8:00 AM 37 °F - 31 °F 72%  in 6 mi SW 25.3 mph - -   Partly Cloudy
8:50 AM 37.4 °F 26.9 °F 32.0 °F 81% 29.89 in 6.2 mi SW 20.7 mph - N/A   Mostly Cloudy
9:50 AM 37.4 °F 26.4 °F 32.0 °F 81% 29.89 in 6.2 mi SSW 23.0 mph - N/A   Mostly Cloudy
10:50 AM 39.2 °F 30.2 °F 32.0 °F 75% 29.92 in 6.2 mi South 17.3 mph - N/A   Mostly Cloudy
11:50 AM 39.2 °F 29.3 °F 32.0 °F 75% 29.89 in 6.2 mi South 20.7 mph - N/A   Mostly Cloudy
12:50 PM 39.2 °F 28.7 °F 30.2 °F 70% 29.89 in 6.2 mi SW 23.0 mph - N/A   Mostly Cloudy
1:50 PM 39.2 °F 30.2 °F 32.0 °F 75% 29.89 in 6.2 mi WSW 17.3 mph - N/A   Scattered Clouds
2:00 PM 39 °F - 31 °F 65%  in 6 mi WSW 17.3 mph - -   Partly Cloudy
2:50 PM 39.2 °F 31.6 °F 32.0 °F 75% 29.89 in 6.2 mi WSW 12.7 mph - N/A   Scattered Clouds
3:50 PM 39.2 °F 37.0 °F 32.0 °F 75% 29.92 in 6.2 mi SW 3.5 mph - N/A   Mostly Cloudy
4:50 PM 37.4 °F 28.2 °F 32.0 °F 81% 29.92 in 6.2 mi SW 16.1 mph - N/A   Scattered Clouds
5:50 PM 37.4 °F 30.3 °F 32.0 °F 81% 29.92 in 6.2 mi WSW 10.4 mph - N/A   Mostly Cloudy
6:50 PM 37.4 °F 26.9 °F 32.0 °F 81% 29.92 in 6.2 mi SW 20.7 mph - N/A   Mostly Cloudy
7:50 PM 35.6 °F 27.1 °F 32.0 °F 87% 29.92 in 6.2 mi SW 12.7 mph - N/A   Mostly Cloudy
8:00 PM 36 °F - 31 °F 76%  in 6 mi SW 12.7 mph - -   Partly Cloudy
8:50 PM 37.4 °F 29.3 °F 32.0 °F 81% 29.92 in 6.2 mi SW 12.7 mph - N/A   Mostly Cloudy
9:50 PM 37.4 °F 26.9 °F 32.0 °F 81% 29.92 in 6.2 mi SW 20.7 mph - N/A   Mostly Cloudy
10:50 PM 37.4 °F 27.5 °F 32.0 °F 81% 29.92 in 6.2 mi SW 18.4 mph - N/A   Mostly Cloudy
11:11 PM 37.4 °F 27.2 °F 32.0 °F 81% 29.92 in 6.2 mi SW 19.6 mph - N/A Rain Light Rain
11:50 PM 37.4 °F 26.4 °F 32.0 °F 81% 29.89 in 6.2 mi SW 23.0 mph - N/A   Mostly Cloudy